Хайдаркен

Kyrgyzstan     39˚57′00″N   71˚19′01″E
temp.,
°C
wind,
m/s
gust,
m/s
humid.,
%
clouds,
%
prec.,
mm/h
press.,
hPa
HPBL,
m
29 november, sun
sun2900:00−7˚e22681 0.0 104321
03:00−9˚se11670 0.0 104221
06:00−8˚se11580 0.0 104121
09:00−7˚sse11490 0.0 104021
12:00−2˚nnw11590 0.0 103795
15:00−2˚nnw10690 0.0 1034112
18:00−6˚sse11660 0.0 103621
21:00−6˚ese11440 0.0 103721
30 november, mon
mon3000:00−6˚se11350 0.0 103721
03:00−6˚se11290 0.0 103621
06:00−6˚se112618 0.0 103521
09:00−5˚ese1118100 0.0 103421
12:00nne1152100 0.0 103143
15:00nne116299 0.0 102752
18:00−3˚ese1150100 0.0 102721
21:00−2˚se0141100 0.0 102721
1 december, tue
tue100:00−2˚sse114795 0.0 102622
03:00sse1151100 0.0 102622
06:00−3˚sse2257100 0.1 102521
09:00−1˚sw1262100 0.3 102622
12:00+1˚sw1170100 0.9 102647
15:00+1˚ese127798 0.6 102675
18:00e119199 0.8 102721
21:00−2˚se118066 0.0 102922
2 december, wed
wed200:00−2˚se116653 0.0 103022
03:00−2˚se115886 0.0 103022
06:00−1˚sse115586 0.0 103022
09:00−1˚sse114987 0.0 103122
12:00+2˚nnw007493 0.0 102832
15:00+2˚sw0078100 0.0 102650
18:00+1˚w1166100 0.0 102722
21:00+1˚sse2354100 0.0 102822
3 december, thu
thu300:00+1˚sse1162100 0.0 102822
03:00+1˚se1259100 0.0 102822
06:00sse1156100 0.0 102822
09:00+1˚sse0055100 0.0 102822
12:00+3˚ene1169100 0.0 102537
15:00+3˚wnw0070100 0.0 102361
18:00+1˚ene0064100 0.0 102322
21:00w0167100 0.0 102422